Weather Roundup
Issued by NWS

Home | Current Version | Previous Version | Text Only | Print | Product List | Glossary On
Versions: 1 2 3 4 5 6 7 8 9 10 11 12 13 14 15 16 17 18 19 20 21 22 23 24 25 26 27 28 29 30 31 32 33 34 35 36 37 38 39 40 41 42 43 44 45 46 47 48 49 50
000
NZUS93 KARX 181910
HRRWXR

CURRENT HOURLY OBSERVATIONS ACROSS
MUCH OF THE UPPER MISSISSIPPI VALLEY
NATIONAL WEATHER SERVICE LA CROSSE WI
200 PM CDT FRI APR 18 2014


...SOUTHEAST MINNESOTA...


CITY           SKY/WX    TMP DP  RH WIND       PRES   REMARKS
ROCHESTER      SUNNY     49  26  41 SE5       30.33F
ROCHESTER/MAYO FAIR      47  21  36 CALM      30.34F
WINONA         SUNNY     50  27  40 CALM      30.37S
AUSTIN         SUNNY     52  27  37 SE7       30.32F
ALBERT LEA     SUNNY     52  30  43 SE8       30.31F
DODGE CENTER   SUNNY     52  30  43 SE7       30.33F
PRESTON        SUNNY     50  26  39 E5        30.34F
OWATONNA       MOSUNNY   52  34  50 SE10      30.33S
FARIBAULT      MOSUNNY   52  28  40 SE9G16    30.33F
$$

...ELSEWHERE IN MINNESOTA...


CITY           SKY/WX    TMP DP  RH WIND       PRES   REMARKS
MINNEAPOLIS    PTSUNNY   49  28  44 SE12      30.34F
INTNL FALLS    SUNNY     43  15  32 SE15      30.34F
DULUTH         MOSUNNY   36  18  48 SE12      30.37S WCI  28
RED WING       MOSUNNY   50  25  37 SE7       30.35F
REDWOOD FALLS  PTSUNNY   49  35  58 SE23G30   30.24F
MANKATO        PTSUNNY   50  30  46 SE15G23   30.31F
WORTHINGTON    SUNNY     55  30  38 SE21G30   30.21F
FAIRMONT       MOSUNNY   52  34  50 SE16G23   30.28F
$$

...SOUTHWEST WISCONSIN...


CITY           SKY/WX    TMP DP  RH WIND       PRES   REMARKS
LA CROSSE      SUNNY     51  26  37 W9        30.36S
PRAIRIE DU CHI SUNNY     53  20  27 SW7       30.35R
BOSCOBEL       SUNNY     55  21  26 VRB7      30.35S
LONE ROCK      SUNNY     52  28  39 VRB3      30.35S
PLATTEVILLE    SUNNY     53  28  38 CALM      30.34F
FORT MC COY    SUNNY     52  21  29 CALM      30.36S
CAMP DOUGLAS   SUNNY     52  24  34 W5        30.35F
VIROQUA        FAIR      49  27  42 N5        30.35R
WIS DELLS      SUNNY     49  23  36 CALM      30.34F
$$

...ELSEWHERE IN WISCONSIN...


CITY           SKY/WX    TMP DP  RH WIND       PRES   REMARKS
MILWAUKEE      MOSUNNY   42  30  62 NE10      30.39R
MADISON        MOSUNNY   52  28  39 VRB7      30.35F
GREEN BAY      NOT AVBL
EAU CLAIRE     SUNNY     48  21  34 NE9       30.36F
BLACK RVR FLS  FAIR      53  20  27 N5        30.35S
MEDFORD        PTSUNNY   42  20  41 N7        30.35F
WAUSAU         SUNNY     46  20  35 N10       30.34S
WIS RAPIDS     SUNNY     50  20  30 VRB7      30.36F
MARSHFIELD     SUNNY     47  24  40 N9        30.34F
RICE LAKE      MOSUNNY   43  24  48 S3        30.39S
$$

...NORTHEAST IOWA...


CITY           SKY/WX    TMP DP  RH WIND       PRES   REMARKS
WATERLOO       SUNNY     54  28  36 VRB3      30.32F
DUBUQUE        SUNNY     53  29  39 E3        30.33F
DECORAH        SUNNY     50  25  37 CALM      30.33F
MASON CITY     SUNNY     55  33  43 SE10      30.32F
CHARLES CITY   SUNNY     52  28  40 E6        30.32F
OELWEIN        SUNNY    N/A N/A N/A VRB5      30.33F
$$

...ELSEWHERE IN IOWA...


CITY           SKY/WX    TMP DP  RH WIND       PRES   REMARKS
DES MOINES     MOSUNNY   61  33  35 SE13G18   30.29F
IOWA CITY      SUNNY     58  32  37 E5        30.33F
FORT DODGE     SUNNY     59  36  41 SE9G20    30.27F
MARSHALLTOWN   SUNNY     56  33  42 SE5       30.29F
CEDAR RAPIDS   SUNNY     56  28  34 NE7       30.31F
$$

...NORTHERN ILLINOIS...


CITY           SKY/WX    TMP DP  RH WIND       PRES   REMARKS
CHICAGO-OHARE  MOSUNNY   50  33  52 NE9       30.35S
DUPAGE         SUNNY     59  36  42 NE6       30.32S
CHICAGO-MIDWAY MOSUNNY   49  36  61 NE9       30.36S
MOLINE         SUNNY     59  29  31 VRB3      30.32F
ROCKFORD       MOSUNNY   56  30  37 CALM      30.34F
STERLING       SUNNY     57  36  44 E8        30.32F
PEORIA         SUNNY     62  30  29 W5        30.31F
$$

NOTE: "FAIR" INDICATES FEW OR NO CLOUDS BELOW 12,000 FEET WITH NO
SIGNIFICANT WEATHER AND/OR OBSTRUCTIONS TO VISIBILITY. WIND
SPEEDS ARE IN MILES-PER-HOUR.



USA.gov is the U.S. government's official web portal to all federal, state and local government web resources and services.